Weather History for Carroll, IA

Change the Weather History Date:

Monday, June 17, 2013

  Actual Average Record
Temperature  
Mean Temperature 73 °F -  
Max Temperature 86 °F 81 °F 92 °F (1949)
Min Temperature 60 °F 58 °F 40 °F (1968)
Cooling Degree Days 8    
Growing Degree Days 23 (Base 50)    
Moisture  
Dew Point 57 °F    
Average Humidity 59    
Maximum Humidity 94    
Minimum Humidity 33    
Precipitation  
Precipitation 0.00 in - - ()
Sea Level Pressure  
Sea Level Pressure 29.98 in    
Wind  
Wind Speed 5 mph (NW)    
Max Wind Speed 16 mph    
Max Gust Speed 22 mph    
Visibility 10 miles    
Events      
Averages and records for this station are not official NWS values.
T = Trace of Precipitation, MM = Missing Value Source: NWS Daily Summary

Daily Weather History Graph

Daily Weather History Graph

Search for Another Location

Airport:

Trip Planner

Search our weather history database for the weather conditions in past years. The results will help you decide how hot, cold, wet, or windy it might be!

Date:

Astronomy

Jun. 17, 2013 Rise Set
Actual Time 5:42 AM CDT 8:57 PM CDT
Civil Twilight 5:08 AM CDT 9:31 PM CDT
Nautical Twilight 4:23 AM CDT 10:16 PM CDT
Astronomical Twilight 3:30 AM CDT 11:10 PM CDT
Moon 2:32 PM CDT (6/17) 1:24 AM CDT (6/17)
Length of Visible Light 16h 23m
Length of Day
15h 14m
First Quarter, 60% of the Moon is Illuminated
Jun 17
First Quarter
Jun 23
Full
Jun 29
Last Quarter
Jul 8
New
Jul 15
First Quarter

Hourly Weather History & Observations

Time (CDT) Temp. Heat Index Dew Point Humidity Pressure Visibility Wind Dir Wind Speed Gust Speed Precip Events Conditions
12:15 AM 68.0 °F - 59.0 °F 73% 29.97 in 10.0 mi Calm Calm - N/A   Clear
12:35 AM 68.0 °F - 60.8 °F 78% 29.98 in 10.0 mi Calm Calm - N/A   Clear
12:55 AM 66.2 °F - 60.8 °F 83% 29.98 in 10.0 mi WNW 3.5 mph - N/A   Clear
1:15 AM 66.2 °F - 59.0 °F 78% 29.98 in 10.0 mi WNW 3.5 mph - N/A   Clear
1:35 AM 66.2 °F - 60.8 °F 83% 29.97 in 10.0 mi WNW 3.5 mph - N/A   Clear
1:55 AM 64.4 °F - 60.8 °F 88% 29.97 in 10.0 mi NW 3.5 mph - N/A   Clear
2:15 AM 64.4 °F - 60.8 °F 88% 29.97 in 10.0 mi Calm Calm - N/A   Clear
2:35 AM 64.4 °F - 59.0 °F 83% 29.97 in 10.0 mi WNW 4.6 mph - N/A   Clear
2:55 AM 64.4 °F - 59.0 °F 83% 29.97 in 10.0 mi WNW 4.6 mph - N/A   Clear
3:15 AM 62.6 °F - 59.0 °F 88% 29.96 in 10.0 mi Calm Calm - N/A   Clear
3:35 AM 62.6 °F - 60.8 °F 94% 29.96 in 10.0 mi Calm Calm - N/A   Clear
3:55 AM 62.6 °F - 59.0 °F 88% 29.96 in 10.0 mi West 4.6 mph - N/A   Clear
4:15 AM 62.6 °F - 59.0 °F 88% 29.95 in 10.0 mi WNW 4.6 mph - N/A   Clear
4:35 AM 62.6 °F - 59.0 °F 88% 29.95 in 10.0 mi WNW 3.5 mph - N/A   Clear
4:55 AM 62.6 °F - 59.0 °F 88% 29.96 in 10.0 mi West 3.5 mph - N/A   Clear
5:15 AM 60.8 °F - 59.0 °F 94% 29.96 in 10.0 mi Calm Calm - N/A   Clear
5:35 AM 60.8 °F - 57.2 °F 88% 29.96 in 10.0 mi Calm Calm - N/A   Clear
5:55 AM 60.8 °F - 59.0 °F 94% 29.97 in 10.0 mi WNW 3.5 mph - N/A   Clear
6:15 AM 60.8 °F - 59.0 °F 94% 29.99 in 10.0 mi WSW 3.5 mph - N/A   Clear
6:35 AM 62.6 °F - 59.0 °F 88% 29.99 in 10.0 mi Calm Calm - N/A   Clear
6:55 AM 62.6 °F - 60.8 °F 94% 30.01 in 10.0 mi WNW 5.8 mph - N/A   Clear
7:15 AM 64.4 °F - 60.8 °F 88% 30.01 in 10.0 mi West 5.8 mph - N/A   Clear
7:35 AM 66.2 °F - 59.0 °F 78% 30.01 in 10.0 mi West 4.6 mph - N/A   Clear
7:55 AM 68.0 °F - 59.0 °F 73% 30.01 in 10.0 mi West 5.8 mph - N/A   Clear
8:15 AM 69.8 °F - 57.2 °F 64% 30.01 in 10.0 mi WNW 8.1 mph - N/A   Clear
8:35 AM 71.6 °F - 59.0 °F 64% 30.02 in 10.0 mi WNW 10.4 mph - N/A   Clear
8:55 AM 73.4 °F - 59.0 °F 61% 30.02 in 10.0 mi NW 9.2 mph - N/A   Clear
9:15 AM 73.4 °F - 57.2 °F 57% 30.01 in 10.0 mi NW 10.4 mph - N/A   Clear
9:35 AM 75.2 °F - 57.2 °F 53% 30.01 in 10.0 mi NW 9.2 mph - N/A   Clear
9:55 AM 77.0 °F - 59.0 °F 54% 30.01 in 10.0 mi NW 9.2 mph - N/A   Clear
10:15 AM 77.0 °F - 59.0 °F 54% 30.00 in 10.0 mi NNW 6.9 mph - N/A   Clear
10:35 AM 78.8 °F - 59.0 °F 51% 30.00 in 10.0 mi NW 4.6 mph - N/A   Clear
10:55 AM 78.8 °F - 59.0 °F 51% 30.00 in 10.0 mi WNW 5.8 mph - N/A   Clear
11:15 AM 78.8 °F - 57.2 °F 47% 30.00 in 10.0 mi NW 4.6 mph 12.7 mph N/A   Clear
11:35 AM 80.6 °F 81.1 °F 59.0 °F 48% 30.01 in 10.0 mi NNW 6.9 mph - N/A   Clear
11:55 AM 82.4 °F 82.5 °F 59.0 °F 45% 30.01 in 10.0 mi NNW 10.4 mph - N/A   Clear
12:15 PM 82.4 °F 82.0 °F 57.2 °F 42% 30.01 in 10.0 mi North 9.2 mph - N/A   Clear
12:35 PM 82.4 °F 82.0 °F 57.2 °F 42% 30.01 in 10.0 mi NNW 8.1 mph - N/A   Clear
12:55 PM 84.2 °F 83.0 °F 55.4 °F 37% 30.00 in 10.0 mi NNW 4.6 mph 11.5 mph N/A   Clear
1:15 PM 84.2 °F 83.0 °F 55.4 °F 37% 30.00 in 10.0 mi West 9.2 mph - N/A   Clear
1:35 PM 84.2 °F 83.5 °F 57.2 °F 40% 30.00 in 10.0 mi Variable 6.9 mph - N/A   Clear
1:55 PM 86.0 °F 84.5 °F 55.4 °F 35% 29.99 in 10.0 mi NW 10.4 mph 17.3 mph N/A   Partly Cloudy
2:15 PM 86.0 °F 84.2 °F 53.6 °F 33% 29.99 in 10.0 mi West 6.9 mph 16.1 mph N/A   Partly Cloudy
2:35 PM 86.0 °F 84.2 °F 53.6 °F 33% 29.98 in 10.0 mi NNW 12.7 mph - N/A   Partly Cloudy
2:55 PM 86.0 °F 84.2 °F 53.6 °F 33% 29.98 in 10.0 mi NNW 9.2 mph 15.0 mph N/A   Partly Cloudy
3:15 PM 86.0 °F 84.2 °F 53.6 °F 33% 29.98 in 10.0 mi WNW 15.0 mph - N/A   Clear
3:35 PM 86.0 °F 84.2 °F 53.6 °F 33% 29.97 in 10.0 mi WNW 9.2 mph 21.9 mph N/A   Clear
3:55 PM 86.0 °F 84.5 °F 55.4 °F 35% 29.97 in 10.0 mi NW 12.7 mph 20.7 mph N/A   Partly Cloudy
4:15 PM 86.0 °F 84.5 °F 55.4 °F 35% 29.96 in 10.0 mi NW 12.7 mph 18.4 mph N/A   Partly Cloudy
4:35 PM 86.0 °F 84.5 °F 55.4 °F 35% 29.96 in 10.0 mi NW 15.0 mph - N/A   Partly Cloudy
4:55 PM 86.0 °F 84.5 °F 55.4 °F 35% 29.96 in 10.0 mi NNW 12.7 mph 20.7 mph N/A   Clear
5:15 PM 86.0 °F 84.2 °F 53.6 °F 33% 29.96 in 10.0 mi North 15.0 mph - N/A   Scattered Clouds
5:35 PM 86.0 °F 84.2 °F 53.6 °F 33% 29.95 in 10.0 mi NNW 16.1 mph - N/A   Partly Cloudy
5:55 PM 86.0 °F 84.2 °F 53.6 °F 33% 29.95 in 10.0 mi NNW 11.5 mph 19.6 mph N/A   Scattered Clouds
6:15 PM 86.0 °F 84.2 °F 53.6 °F 33% 29.94 in 10.0 mi NW 13.8 mph - N/A   Scattered Clouds
6:35 PM 84.2 °F 82.8 °F 53.6 °F 35% 29.95 in 10.0 mi NW 13.8 mph - N/A   Clear
6:55 PM 84.2 °F 82.8 °F 53.6 °F 35% 29.94 in 10.0 mi NNW 11.5 mph - N/A   Clear
7:15 PM 82.4 °F - 51.8 °F 35% 29.94 in 10.0 mi NNW 12.7 mph - N/A   Clear
7:35 PM 82.4 °F - 51.8 °F 35% 29.94 in 10.0 mi NNW 12.7 mph - N/A   Clear
7:55 PM 82.4 °F - 51.8 °F 35% 29.94 in 10.0 mi NW 11.5 mph - N/A   Clear
8:15 PM 80.6 °F 80.3 °F 53.6 °F 39% 29.94 in 10.0 mi NW 8.1 mph - N/A   Clear
8:35 PM 78.8 °F - 53.6 °F 42% 29.95 in 10.0 mi NW 8.1 mph - N/A   Clear
8:55 PM 75.2 °F - 55.4 °F 50% 29.96 in 10.0 mi NNW 9.2 mph - N/A   Clear
9:15 PM 75.2 °F - 53.6 °F 47% 29.97 in 10.0 mi NNW 9.2 mph - N/A   Clear
9:35 PM 73.4 °F - 55.4 °F 53% 29.98 in 10.0 mi NW 6.9 mph - N/A   Clear
9:55 PM 71.6 °F - 55.4 °F 57% 29.98 in 10.0 mi NW 8.1 mph - N/A   Clear
10:15 PM 71.6 °F - 55.4 °F 57% 29.99 in 10.0 mi NW 8.1 mph - N/A   Clear
10:35 PM 71.6 °F - 55.4 °F 57% 30.00 in 10.0 mi NW 8.1 mph - N/A   Clear
10:55 PM 69.8 °F - 57.2 °F 64% 30.01 in 10.0 mi NW 8.1 mph - N/A   Clear
11:15 PM 68.0 °F - 57.2 °F 68% 30.01 in 10.0 mi WNW 5.8 mph - N/A   Clear
11:35 PM 66.2 °F - 59.0 °F 78% 30.01 in 10.0 mi NW 8.1 mph - N/A   Clear
11:55 PM 68.0 °F - 57.2 °F 68% 30.01 in 10.0 mi NW 6.9 mph - N/A   Clear